GW3550 Weather Reports


time (UTC)temp
C
wind
direction
speed
KPH
gust
KPH
rain 1hr
cm
rain 24hr
cm
rain mn
cm
humidity
%
barometer
mb
20260506001853 22 201 0.0 3.2 0.00 0.00 0.00 51 1015.1
20260506001351 22 245 0.0 1.6 0.00 0.00 0.00 50 1015.0
20260506000848 22 186 0.0 0.0 0.00 0.00 0.00 50 1014.8
20260506000346 22 196 0.0 0.0 0.00 0.00 0.00 50 1014.8
20260505235842 23 195 0.0 1.6 0.00 0.00 0.00 48 1014.8
20260505235340 24 176 0.0 0.0 0.00 0.00 0.00 47 1014.8
20260505234836 25 233 0.0 0.0 0.00 0.00 0.00 45 1014.8
20260505234335 25 162 3.2 3.2 0.00 0.00 0.00 44 1015.1
20260505233831 24 255 0.0 3.2 0.00 0.00 0.00 46 1014.9
20260505233329 24 208 0.0 0.0 0.00 0.00 0.00 45 1014.9
20260505232826 24 210 0.0 1.6 0.00 0.00 0.00 46 1014.8
20260505232324 23 359 0.0 4.8 0.00 0.00 0.00 45 1015.1
20260505231820 24 223 1.6 3.2 0.00 0.00 0.00 45 1014.9
20260505231318 24 224 1.6 4.8 0.00 0.00 0.00 45 1015.1
20260505230816 24 230 1.6 6.4 0.00 0.00 0.00 44 1015.1
20260505230313 23 204 3.2 11.3 0.00 0.00 0.00 44 1014.8
20260505225809 23 240 0.0 1.6 0.00 0.00 0.00 47 1015.0
20260505225307 24 224 1.6 1.6 0.00 0.00 0.00 46 1015.1
20260505224802 25 181 3.2 6.4 0.00 0.00 0.00 44 1014.9
20260505224300 25 51 1.6 6.4 0.00 0.00 0.00 44 1015.0
20260505223757 26 48 0.0 4.8 0.00 0.00 0.00 42 1015.2
20260505223254 26 220 0.0 1.6 0.00 0.00 0.00 43 1014.9
20260505222749 25 229 0.0 6.4 0.00 0.00 0.00 43 1014.6
20260505222246 25 231 0.0 3.2 0.00 0.00 0.00 45 1014.6
20260505221743 25 278 0.0 4.8 0.00 0.00 0.00 44 1014.9
20260505221240 26 183 0.0 3.2 0.00 0.00 0.00 43 1014.9
20260505220736 26 164 6.4 14.5 0.00 0.00 0.00 40 1014.8
20260505220234 26 258 0.0 6.4 0.00 0.00 0.00 42 1015.1
20260505215732 26 167 0.0 3.2 0.00 0.00 0.00 41 1014.8
20260505215229 26 209 3.2 4.8 0.00 0.00 0.00 39 1015.1
20260505214727 27 55 0.0 1.6 0.00 0.00 0.00 40 1015.1
20260505214224 27 182 3.2 4.8 0.00 0.00 0.00 39 1015.0
20260505213721 26 12 3.2 6.4 0.00 0.00 0.00 40 1015.0
20260505213218 26 203 1.6 4.8 0.00 0.00 0.00 38 1015.0
20260505212713 27 209 4.8 16.1 0.00 0.00 0.00 38 1015.0
20260505212206 26 217 1.6 6.4 0.00 0.00 0.00 42 1015.1
20260505211702 27 204 1.6 4.8 0.00 0.00 0.00 39 1015.2
20260505211200 27 183 3.2 9.7 0.00 0.00 0.00 38 1015.2
20260505210656 27 190 0.0 4.8 0.00 0.00 0.00 40 1015.1
20260505210153 26 222 3.2 4.8 0.00 0.00 0.00 39 1015.2
20260505205651 26 156 6.4 11.3 0.00 0.00 0.00 37 1015.4
20260505205149 27 215 3.2 11.3 0.00 0.00 0.00 39 1015.2
20260505204645 26 222 0.0 12.9 0.00 0.00 0.00 43 1015.2
20260505204143 27 99 3.2 4.8 0.00 0.00 0.00 39 1015.4
20260505203640 27 143 0.0 3.2 0.00 0.00 0.00 41 1015.5
20260505203137 27 239 1.6 11.3 0.00 0.00 0.00 40 1015.8
20260505202632 27 248 3.2 4.8 0.00 0.00 0.00 41 1015.7
20260505202128 27 262 0.0 11.3 0.00 0.00 0.00 39 1015.6
20260505201625 28 302 1.6 3.2 0.00 0.00 0.00 38 1015.7
20260505201117 27 347 1.6 4.8 0.00 0.00 0.00 39 1015.8
20260505200615 26 261 3.2 9.7 0.00 0.00 0.00 40 1015.7
20260505200111 25 176 1.6 4.8 0.00 0.00 0.00 43 1016.0
20260505195602 25 233 3.2 4.8 0.00 0.00 0.00 42 1015.9
20260505195100 26 218 1.6 9.7 0.00 0.00 0.00 43 1016.0
20260505194556 26 179 1.6 6.4 0.00 0.00 0.00 41 1015.8
20260505194052 26 206 0.0 4.8 0.00 0.00 0.00 43 1016.4
20260505193549 26 170 1.6 4.8 0.00 0.00 0.00 41 1016.2
20260505193046 27 201 4.8 9.7 0.00 0.00 0.00 39 1016.1
20260505192544 26 130 6.4 9.7 0.00 0.00 0.00 37 1016.1
20260505192041 27 218 1.6 11.3 0.00 0.00 0.00 37 1016.1
20260505191539 27 224 3.2 4.8 0.00 0.00 0.00 36 1016.4
20260505191037 27 186 4.8 6.4 0.00 0.00 0.00 38 1016.4
20260505190532 26 194 1.6 4.8 0.00 0.00 0.00 39 1016.2
20260505190029 27 243 1.6 6.4 0.00 0.00 0.00 40 1016.4
20260505185526 26 254 3.2 9.7 0.00 0.00 0.00 40 1016.3
20260505185022 27 157 9.7 16.1 0.00 0.00 0.00 38 1016.5
20260505184519 26 234 4.8 6.4 0.00 0.00 0.00 38 1016.6
20260505184015 27 281 3.2 14.5 0.00 0.00 0.00 36 1016.7
20260505183507 27 55 1.6 3.2 0.00 0.00 0.00 39 1016.8
20260505183004 27 168 4.8 6.4 0.00 0.00 0.00 38 1016.8
20260505182500 27 219 4.8 14.5 0.00 0.00 0.00 40 1017.1
20260505181956 27 230 0.0 6.4 0.00 0.00 0.00 39 1017.3
20260505181453 27 95 3.2 6.4 0.00 0.00 0.00 40 1016.9
20260505180950 27 213 4.8 9.7 0.00 0.00 0.00 38 1017.3
20260505180446 27 261 4.8 6.4 0.00 0.00 0.00 38 1017.3
20260505175943 26 246 4.8 11.3 0.00 0.00 0.00 39 1017.3
20260505175439 27 191 1.6 3.2 0.00 0.00 0.00 40 1017.3
20260505174936 26 250 1.6 6.4 0.00 0.00 0.00 41 1017.4
20260505174433 26 187 3.2 12.9 0.00 0.00 0.00 42 1017.5
20260505173929 26 246 3.2 11.3 0.00 0.00 0.00 41 1017.6
20260505173425 25 209 0.0 3.2 0.00 0.00 0.00 41 1017.8
20260505172923 27 176 9.7 20.9 0.00 0.00 0.00 37 1017.5
20260505172421 27 43 8.0 14.5 0.00 0.00 0.00 39 1017.7
20260505171920 26 83 1.6 9.7 0.00 0.00 0.00 39 1017.5
20260505171412 26 217 0.0 4.8 0.00 0.00 0.00 41 1017.4
20260505170909 26 194 4.8 9.7 0.00 0.00 0.00 37 1017.6
20260505170405 26 166 0.0 4.8 0.00 0.00 0.00 39 1017.6
20260505165900 27 253 3.2 9.7 0.00 0.00 0.00 40 1017.7
20260505165350 27 233 3.2 9.7 0.00 0.00 0.00 38 1017.8
20260505164846 27 39 1.6 4.8 0.00 0.00 0.00 39 1017.6
20260505164343 27 220 1.6 6.4 0.00 0.00 0.00 42 1017.9
20260505163842 25 192 0.0 11.3 0.00 0.00 0.00 41 1017.9
20260505163340 25 58 3.2 9.7 0.00 0.00 0.00 43 1017.6
20260505162838 25 208 0.0 11.3 0.00 0.00 0.00 45 1018.0
20260505162334 26 351 3.2 9.7 0.00 0.00 0.00 43 1017.9
20260505161831 24 197 6.4 9.7 0.00 0.00 0.00 42 1017.8
20260505161328 24 175 0.0 0.0 0.00 0.00 0.00 46 1018.0
20260505160825 26 199 1.6 6.4 0.00 0.00 0.00 43 1018.0
20260505160323 25 194 0.0 6.4 0.00 0.00 0.00 44 1017.9
20260505153301 24 223 0.0 3.2 0.00 0.00 0.00 51 1017.9
20260505152759 25 207 0.0 3.2 0.00 0.00 0.00 49 1017.9
20260505152255 23 298 0.0 4.8 0.00 0.00 0.00 53 1018.3
20260505151749 23 35 3.2 3.2 0.00 0.00 0.00 53 1018.4
20260505151247 23 73 3.2 6.4 0.00 0.00 0.00 53 1018.4
20260505150744 22 187 0.0 6.4 0.00 0.00 0.00 57 1018.1
20260505150241 23 189 4.8 4.8 0.00 0.00 0.00 52 1018.1
20260505140206 20 100 0.0 3.2 0.00 0.00 0.00 60 1018.3
20260505130130 15 41 1.6 3.2 0.00 0.00 0.00 73 1017.6
20260505124619 16 90 0.0 1.6 0.00 0.00 0.00 72 1017.6
20260505124116 15 90 0.0 1.6 0.00 0.00 0.00 71 1017.8
20260505123612 15 90 1.6 3.2 0.00 0.00 0.00 73 1017.6
20260505123108 16 26 1.6 3.2 0.00 0.00 0.00 69 1017.5
20260505122605 15 317 0.0 1.6 0.00 0.00 0.00 70 1017.5
20260505122102 14 240 1.6 1.6 0.00 0.00 0.00 75 1017.5
20260505121553 13 248 1.6 3.2 0.00 0.00 0.00 77 1017.5
20260505121050 13 252 3.2 3.2 0.00 0.00 0.00 77 1017.5
20260505120546 13 246 1.6 3.2 0.00 0.00 0.00 77 1017.1
20260505120042 13 235 0.0 0.0 0.00 0.00 0.00 78 1017.1
20260505115536 13 235 0.0 0.0 0.00 0.00 0.00 78 1017.3
20260505115034 12 228 0.0 1.6 0.00 0.00 0.00 78 1017.1
20260505114531 12 228 0.0 0.0 0.00 0.00 0.00 79 1017.1
20260505114027 12 228 0.0 1.6 0.00 0.00 0.00 80 1017.0
20260505113524 12 228 0.0 1.6 0.00 0.00 0.00 80 1016.9
20260505113020 12 228 0.0 0.0 0.00 0.00 0.00 78 1016.8
20260505112516 12 228 0.0 0.0 0.00 0.00 0.00 78 1016.6
20260505112014 11 229 0.0 0.0 0.00 0.00 0.00 79 1016.7
20260505111508 11 229 0.0 0.0 0.00 0.00 0.00 83 1017.0
20260505111005 10 229 0.0 0.0 0.00 0.00 0.00 83 1016.6
20260505110502 10 229 0.0 0.0 0.00 0.00 0.00 85 1016.8
20260505101933 10 229 0.0 0.0 0.00 0.00 0.00 84 1016.6
20260505101427 10 229 0.0 0.0 0.00 0.00 0.00 85 1016.7
20260505100923 10 229 0.0 0.0 0.00 0.00 0.00 85 1016.8
20260505100420 10 215 0.0 0.0 0.00 0.00 0.00 84 1016.6
20260505095915 10 223 0.0 0.0 0.00 0.00 0.00 83 1016.6
20260505095413 10 223 0.0 0.0 0.00 0.00 0.00 82 1016.3
20260505094909 11 216 0.0 0.0 0.00 0.00 0.00 81 1016.6
20260505094406 11 231 0.0 3.2 0.00 0.00 0.00 77 1016.4
20260505093901 10 218 0.0 1.6 0.00 0.00 0.00 83 1016.7
20260505093359 10 217 0.0 1.6 0.00 0.00 0.00 81 1016.5
20260505092856 10 225 0.0 1.6 0.00 0.00 0.00 85 1016.7
20260505092354 11 173 0.0 1.6 0.00 0.00 0.00 83 1016.4
20260505091851 12 231 0.0 1.6 0.00 0.00 0.00 72 1016.2
20260505091349 12 231 0.0 0.0 0.00 0.00 0.00 74 1016.4
20260505090847 11 212 0.0 0.0 0.00 0.00 0.00 74 1016.5
20260505090345 11 231 0.0 0.0 0.00 0.00 0.00 75 1016.7
20260505085842 11 231 0.0 0.0 0.00 0.00 0.00 76 1016.8
20260505085340 11 214 0.0 0.0 0.00 0.00 0.00 79 1016.5
20260505084837 10 220 0.0 0.0 0.00 0.00 0.00 82 1016.4
20260505084335 10 237 0.0 0.0 0.00 0.00 0.00 85 1016.5
20260505083832 10 235 0.0 0.0 0.00 0.00 0.00 85 1016.5
20260505083330 10 235 0.0 0.0 0.00 0.00 0.00 85 1016.8
20260505082826 10 236 0.0 1.6 0.00 0.00 0.00 84 1016.7
20260505082322 10 240 0.0 0.0 0.00 0.00 0.00 83 1016.5
20260505081819 11 235 0.0 0.0 0.00 0.00 0.00 82 1016.5
20260505081316 11 233 0.0 0.0 0.00 0.00 0.00 79 1016.6
20260505080813 11 233 0.0 0.0 0.00 0.00 0.00 78 1016.7
20260505080309 11 234 0.0 0.0 0.00 0.00 0.00 78 1016.7
20260505075804 11 233 0.0 0.0 0.00 0.00 0.00 77 1016.7
20260505075304 11 233 0.0 0.0 0.00 0.00 0.00 76 1016.5
20260505074759 11 232 0.0 0.0 0.00 0.00 0.00 77 1016.6
20260505074256 11 233 0.0 0.0 0.00 0.00 0.00 77 1016.4
20260505073753 11 235 0.0 0.0 0.00 0.00 0.00 78 1016.4
20260505073251 11 232 0.0 0.0 0.00 0.00 0.00 77 1016.3
20260505072747 11 251 0.0 0.0 0.00 0.00 0.00 77 1016.5
20260505072244 11 242 0.0 1.6 0.00 0.00 0.00 77 1016.6
20260505071739 12 233 0.0 0.0 0.00 0.00 0.00 77 1016.6
20260505071236 12 230 0.0 0.0 0.00 0.00 0.00 74 1016.5
20260505070734 12 235 0.0 1.6 0.00 0.00 0.00 73 1016.3
20260505070230 12 239 0.0 0.0 0.00 0.00 0.00 73 1016.5
20260505065726 12 235 0.0 0.0 0.00 0.00 0.00 72 1016.4
20260505065223 13 233 0.0 0.0 0.00 0.00 0.00 70 1016.5
20260505064720 13 215 0.0 0.0 0.00 0.00 0.00 67 1016.5
20260505064218 13 194 0.0 0.0 0.00 0.00 0.00 66 1016.4
20260505063715 13 200 0.0 1.6 0.00 0.00 0.00 65 1016.4
20260505063211 14 221 0.0 0.0 0.00 0.00 0.00 64 1016.6
20260505062707 14 219 0.0 0.0 0.00 0.00 0.00 64 1016.5
20260505062206 15 236 0.0 1.6 0.00 0.00 0.00 64 1016.8
20260505061702 15 237 0.0 0.0 0.00 0.00 0.00 63 1016.6
20260505061200 15 214 1.6 1.6 0.00 0.00 0.00 63 1016.7
20260505060657 15 227 0.0 0.0 0.00 0.00 0.00 63 1016.8
20260505060154 15 212 1.6 1.6 0.00 0.00 0.00 63 1016.7
20260505055649 15 245 0.0 0.0 0.00 0.00 0.00 63 1017.0
20260505055146 15 233 0.0 1.6 0.00 0.00 0.00 62 1016.8
20260505054643 15 239 0.0 1.6 0.00 0.00 0.00 61 1016.8
20260505054141 15 232 0.0 3.2 0.00 0.00 0.00 61 1016.7
20260505053639 15 214 1.6 3.2 0.00 0.00 0.00 61 1016.9
20260505053134 15 214 0.0 0.0 0.00 0.00 0.00 62 1016.8
20260505052632 15 231 0.0 3.2 0.00 0.00 0.00 62 1016.8
20260505052129 15 220 1.6 1.6 0.00 0.00 0.00 61 1016.8
20260505051626 15 218 0.0 3.2 0.00 0.00 0.00 61 1016.7
20260505051124 15 228 0.0 0.0 0.00 0.00 0.00 63 1016.8
20260505050621 15 220 0.0 1.6 0.00 0.00 0.00 63 1016.6
20260505050120 14 221 1.6 1.6 0.00 0.00 0.00 64 1016.7
20260505041549 15 221 0.0 0.0 0.00 0.00 0.00 62 1017.0
20260505041047 16 224 0.0 0.0 0.00 0.00 0.00 61 1016.9
20260505040544 16 225 0.0 0.0 0.00 0.00 0.00 60 1017.0
20260505040041 16 185 0.0 1.6 0.00 0.00 0.00 60 1016.9
20260505035537 16 204 0.0 0.0 0.00 0.00 0.00 61 1016.8
20260505035034 16 231 0.0 0.0 0.00 0.00 0.00 61 1016.9
20260505034530 16 225 0.0 1.6 0.00 0.00 0.00 61 1016.9
20260505034027 16 210 0.0 0.0 0.00 0.00 0.00 61 1016.9
20260505033525 16 215 0.0 0.0 0.00 0.00 0.00 61 1016.8
20260505033023 16 214 0.0 1.6 0.00 0.00 0.00 61 1016.9
20260505032520 16 226 0.0 0.0 0.00 0.00 0.00 60 1017.1
20260505032016 16 224 0.0 1.6 0.00 0.00 0.00 60 1017.3
20260505031514 16 208 0.0 3.2 0.00 0.00 0.00 59 1017.3
20260505031010 17 219 0.0 1.6 0.00 0.00 0.00 59 1016.9
20260505030507 16 192 0.0 4.8 0.00 0.00 0.00 60 1016.9
20260505030002 16 221 0.0 1.6 0.00 0.00 0.00 60 1017.0
20260505025459 16 221 0.0 0.0 0.00 0.00 0.00 60 1016.8
20260505024958 17 220 0.0 0.0 0.00 0.00 0.00 59 1016.9
20260505024454 17 221 0.0 0.0 0.00 0.00 0.00 58 1016.9
20260505023951 17 220 0.0 0.0 0.00 0.00 0.00 58 1016.8
20260505023448 17 200 0.0 0.0 0.00 0.00 0.00 58 1016.9
20260505022946 17 207 0.0 1.6 0.00 0.00 0.00 57 1016.7
20260505022443 17 229 0.0 1.6 0.00 0.00 0.00 56 1017.0
20260505021941 17 231 0.0 1.6 0.00 0.00 0.00 57 1017.0
20260505021437 17 194 0.0 1.6 0.00 0.00 0.00 57 1016.7
20260505020932 17 223 0.0 0.0 0.00 0.00 0.00 57 1016.7
20260505020428 17 223 0.0 0.0 0.00 0.00 0.00 56 1017.0
20260505015925 17 230 0.0 0.0 0.00 0.00 0.00 56 1016.8
20260505015422 17 212 0.0 0.0 0.00 0.00 0.00 55 1016.6
20260505014920 17 222 0.0 0.0 0.00 0.00 0.00 55 1016.5
20260505014416 17 226 1.6 1.6 0.00 0.00 0.00 54 1016.5
20260505013913 17 223 0.0 0.0 0.00 0.00 0.00 54 1016.6
20260505013410 18 225 0.0 0.0 0.00 0.00 0.00 53 1016.5
20260505012909 18 224 0.0 0.0 0.00 0.00 0.00 53 1016.4
20260505012406 18 225 0.0 0.0 0.00 0.00 0.00 52 1016.3
20260505011902 18 218 0.0 1.6 0.00 0.00 0.00 51 1016.4
20260505011359 19 220 0.0 0.0 0.00 0.00 0.00 50 1016.3
20260505010855 19 210 0.0 1.6 0.00 0.00 0.00 49 1016.2
20260505010351 19 183 1.6 1.6 0.00 0.00 0.00 49 1016.0
20260505005847 20 222 0.0 3.2 0.00 0.00 0.00 48 1016.1
20260505005344 20 192 0.0 3.2 0.00 0.00 0.00 48 1016.0
20260505004842 19 221 0.0 1.6 0.00 0.00 0.00 49 1016.2
20260505004338 19 214 0.0 0.0 0.00 0.00 0.00 49 1016.2
20260505003835 19 223 0.0 0.0 0.00 0.00 0.00 49 1016.0
20260505003332 20 220 0.0 0.0 0.00 0.00 0.00 48 1016.0
20260505002828 20 222 0.0 0.0 0.00 0.00 0.00 48 1015.9
20260505002325 20 221 0.0 0.0 0.00 0.00 0.00 47 1015.8